TimeEEST,TemperatureF,Dew PointF,Humidity,Sea Level PressureIn,VisibilityMPH,Wind Direction,Wind SpeedMPH,Gust SpeedMPH,PrecipitationIn,Events,Conditions,WindDirDegrees,DateUTC
12:20 AM,68.0,44.6,43,30.04,-9999.0,NNE,5.8,-,N/A,,Clear,20,2012-10-02 21:20:00
12:50 AM,69.8,42.8,38,30.04,-9999.0,NNE,5.8,-,N/A,,Clear,20,2012-10-02 21:50:00
1:20 AM,66.2,41.0,40,30.04,-9999.0,NE,4.6,-,N/A,,Clear,40,2012-10-02 22:20:00
1:50 AM,66.2,48.2,52,30.04,-9999.0,Variable,1.2,-,N/A,,Clear,0,2012-10-02 22:50:00
2:20 AM,66.2,42.8,43,30.04,-9999.0,Variable,2.3,-,N/A,,Clear,0,2012-10-02 23:20:00
3:20 AM,66.2,46.4,49,30.04,-9999.0,Variable,2.3,-,N/A,,Clear,0,2012-10-03 00:20:00
3:50 AM,66.2,42.8,43,30.04,-9999.0,SE,4.6,-,N/A,,Clear,140,2012-10-03 00:50:00
4:20 AM,64.4,42.8,45,30.04,-9999.0,Calm,Calm,-,N/A,,Clear,0,2012-10-03 01:20:00
4:50 AM,62.6,42.8,48,30.04,-9999.0,WSW,3.5,-,N/A,,Clear,240,2012-10-03 01:50:00
5:20 AM,64.4,42.8,45,30.04,-9999.0,WSW,5.8,-,N/A,,Clear,250,2012-10-03 02:20:00
5:50 AM,66.2,41.0,40,30.04,6.2,WNW,5.8,-,N/A,,Scattered Clouds,300,2012-10-03 02:50:00
6:20 AM,64.4,44.6,49,30.04,6.2,North,4.6,-,N/A,,Scattered Clouds,10,2012-10-03 03:20:00
6:50 AM,64.4,44.6,49,30.04,6.2,NNE,6.9,-,N/A,,Mostly Cloudy,30,2012-10-03 03:50:00
7:20 AM,68.0,41.0,37,30.04,6.2,NE,6.9,-,N/A,,Mostly Cloudy,40,2012-10-03 04:20:00
7:50 AM,69.8,41.0,35,30.04,6.2,NNE,8.1,-,N/A,,Mostly Cloudy,30,2012-10-03 04:50:00
8:20 AM,71.6,42.8,35,30.04,6.2,North,6.9,-,N/A,,Mostly Cloudy,10,2012-10-03 05:20:00
8:50 AM,73.4,42.8,33,30.04,6.2,ENE,5.8,-,N/A,,Mostly Cloudy,60,2012-10-03 05:50:00
9:20 AM,77.0,42.8,29,30.04,6.2,NE,6.9,-,N/A,,Mostly Cloudy,50,2012-10-03 06:20:00
9:50 AM,80.6,41.0,24,30.04,6.2,North,4.6,-,N/A,,Mostly Cloudy,10,2012-10-03 06:50:00
10:20 AM,80.6,44.6,28,30.04,6.2,West,3.5,-,N/A,,Mostly Cloudy,280,2012-10-03 07:20:00
10:50 AM,84.2,41.0,22,30.04,6.2,North,3.5,-,N/A,,Mostly Cloudy,10,2012-10-03 07:50:00
11:20 AM,87.8,41.0,19,30.01,6.2,NNE,3.5,-,N/A,,Mostly Cloudy,20,2012-10-03 08:20:00
11:50 AM,86.0,41.0,20,30.01,6.2,NNW,3.5,-,N/A,,Mostly Cloudy,340,2012-10-03 08:50:00
12:20 PM,89.6,41.0,18,30.01,6.2,Variable,1.2,-,N/A,,Scattered Clouds,0,2012-10-03 09:20:00
12:50 PM,91.4,39.2,16,29.98,6.2,Variable,1.2,-,N/A,,Partly Cloudy,0,2012-10-03 09:50:00
1:20 PM,93.2,39.2,15,29.95,6.2,NNE,4.6,-,N/A,,Partly Cloudy,30,2012-10-03 10:20:00
1:50 PM,95.0,37.4,13,29.95,6.2,Calm,Calm,-,N/A,,Scattered Clouds,0,2012-10-03 10:50:00
2:20 PM,93.2,35.6,13,29.95,6.2,West,4.6,-,N/A,,Scattered Clouds,270,2012-10-03 11:20:00
2:50 PM,93.2,37.4,14,29.95,6.2,Variable,1.2,-,N/A,,Mostly Cloudy,0,2012-10-03 11:50:00
3:20 PM,91.4,37.4,15,29.95,6.2,Variable,2.3,-,N/A,Thunderstorm,Thunderstorm,0,2012-10-03 12:20:00
3:50 PM,89.6,41.0,18,29.95,3.7,WNW,16.1,-,N/A,Rain-Thunderstorm,Light Thunderstorms and Rain,300,2012-10-03 12:50:00
4:20 PM,87.8,39.2,18,29.95,6.2,WNW,12.7,-,N/A,,Mostly Cloudy,290,2012-10-03 13:20:00
4:50 PM,87.8,39.2,18,29.95,6.2,WNW,5.8,-,N/A,,Mostly Cloudy,300,2012-10-03 13:50:00
5:20 PM,87.8,39.2,18,29.95,6.2,West,9.2,-,N/A,,Scattered Clouds,280,2012-10-03 14:20:00
5:50 PM,84.2,42.8,23,29.95,3.7,WNW,8.1,-,N/A,,Scattered Clouds,300,2012-10-03 14:50:00
6:20 PM,82.4,42.8,25,29.98,6.2,South,4.6,-,N/A,,Mostly Cloudy,180,2012-10-03 15:20:00
6:50 PM,80.6,46.4,30,29.98,6.2,ESE,3.5,-,N/A,,Mostly Cloudy,120,2012-10-03 15:50:00
7:20 PM,78.8,46.4,32,29.98,6.2,ESE,5.8,-,N/A,,Mostly Cloudy,120,2012-10-03 16:20:00
7:50 PM,78.8,46.4,32,29.95,6.2,ESE,4.6,-,N/A,,Mostly Cloudy,110,2012-10-03 16:50:00
8:20 PM,75.2,48.2,38,29.95,6.2,NNE,3.5,-,N/A,,Scattered Clouds,20,2012-10-03 17:20:00
8:50 PM,73.4,50.0,44,29.95,6.2,ENE,5.8,-,N/A,,Scattered Clouds,70,2012-10-03 17:50:00
9:20 PM,75.2,46.4,36,29.95,6.2,NE,5.8,-,N/A,,Scattered Clouds,40,2012-10-03 18:20:00
9:50 PM,75.2,46.4,36,29.95,6.2,North,5.8,-,N/A,,Scattered Clouds,350,2012-10-03 18:50:00
10:20 PM,78.8,44.6,30,29.95,6.2,East,8.1,-,N/A,,Scattered Clouds,100,2012-10-03 19:20:00
10:50 PM,78.8,44.6,30,29.92,-9999.0,East,10.4,-,N/A,,Clear,80,2012-10-03 19:50:00
11:20 PM,78.8,44.6,30,29.92,-9999.0,East,9.2,-,N/A,,Clear,90,2012-10-03 20:20:00
11:50 PM,77.0,46.4,34,29.92,-9999.0,NE,5.8,-,N/A,,Clear,50,2012-10-03 20:50:00